Weather in Elanci

Russia / Irkutsk Oblast     52°47′50″N   106°23′57″E
temp.,
°C
wind,
m/s
gust,
m/s
humid.,
%
clouds,
%
prec.,
mm/h
press.,
hPa
HPBL,
m
15 august, mon
mon1523:00+13nnw11793 0.0 100611
02:00+13nw117597 0.0 100512
05:00+14w227098 0.0 100626
08:00+15wsw348654 0.4 1007113
11:00+20ssw34565 0.0 10061098
14:00+21s345138 0.0 10041358
17:00+21s23515 0.0 1003699
20:00+14nne33793 0.0 100339
16 august, tue
tue1623:00+13nw558787 1.5 100364
02:00+13w2391100 2.5 100563
05:00+12wnw369278 0.0 1006161
08:00+13wnw3588100 0.0 1007194
11:00+16nnw3457100 0.0 1006570
14:00+18sse345455 0.0 10041282
17:00+17s235668 0.0 1003363
20:00+16nnw2456100 0.0 100398
17 august, wed
wed1723:00+12nw227049 0.0 100527
02:00+11nw4579100 0.0 100781
05:00+11nw377391 0.0 1008246
08:00+12wnw476886 0.0 1009367
11:00+15wnw465292 0.0 1009766
14:00+16wsw465088 0.0 10071623
17:00+15wnw244920 0.0 10081080
20:00+12nw12625 0.0 100821
18 august, thu
thu1823:00+10nnw32662 0.0 101025
02:00+9nw2267100 0.0 101023
05:00+9nw2265100 0.0 101044
08:00+12nw115799 0.0 1010187
11:00+14sse235262 0.0 10091025
14:00+13sse2257100 0.0 1009364
17:00+14e215494 0.0 1008613
20:00+11ne1167100 0.0 100822
19 august, fri
fri1923:00+11n2271100 0.0 100832
02:00+10w3388100 1.0 100984
05:00+9nw4783100 0.3 1010186
08:00+10nw49710 0.3 1011446
11:00+15s13485 0.0 10101055
14:00+14sse535699 0.0 1009714
17:00+14ene1248100 0.0 1008394
20:00+11ne4665100 0.0 1007137